Hourly Data Report for June 05, 2021

GAMETI
NORTHWEST TERRITORIES
Current Station Operator: ECCC - MSC

64°06'42.078" N
117°19'40.086" W
221.00 m
2203359
71165
WYH

Download Data

Hourly Data (June 2021)
Hourly Data Report for June 5, 2021
TIME
LST
Temp Definition
°C
Dew Point Definition
°C
Rel Hum Definition
%
Precip. Amount Definition
mm

Wind Dir Definition
10's deg

Wind Spd Definition
km/h
Visibility Definition
km
Stn Press Definition
kPa
Hmdx Definition


Wind Chill Definition


Weather Definition


00:00 5.8 5.0 94 LegendMM 35 12   97.16     LegendNANA
01:00 4.7 4.5 99 LegendMM 34 10   97.20     LegendNANA
02:00 5.3 5.2 99 LegendMM 1 11   97.24     LegendNANA
03:00 4.2 4.1 99 LegendMM 36 11   97.25     LegendNANA
04:00 4.4 4.3 99 LegendMM 36 4   97.26     LegendNANA
05:00 4.1 4.0 99 LegendMM 2 4   97.27     LegendNANA
06:00 4.1 4.0 99 LegendMM 1 2   97.30     LegendNANA
07:00 3.7 3.5 98 LegendMM 11 5   97.29     LegendNANA
08:00 5.0 4.3 95 LegendMM 35 7   97.27     LegendNANA
09:00 7.0 4.1 82 LegendMM 36 5   97.26     LegendNANA
10:00 8.4 4.6 77 LegendMM 36 6   97.26     LegendNANA
11:00 9.8 4.7 71 LegendMM 35 6   97.26     LegendNANA
12:00 8.9 4.0 71 LegendMM 2 15   97.28     LegendNANA
13:00 8.5 3.2 70 LegendMM 36 15   97.34     LegendNANA
14:00 8.1 2.5 68 LegendMM 1 14   97.37     LegendNANA
15:00 6.0 0.7 69 LegendMM 34 14   97.42     LegendNANA
16:00 6.5 0.1 64 LegendMM 34 19   97.45     LegendNANA
17:00 6.4 0.1 64 LegendMM 35 26   97.46     LegendNANA
18:00 5.7 -0.1 67 LegendMM 34 29   97.51     LegendNANA
19:00 4.9 0.1 71 LegendMM 34 18   97.58     LegendNANA
20:00 3.8 -0.4 74 LegendMM 33 16   97.63     LegendNANA
21:00 3.8 -0.1 76 LegendMM 31 12   97.67     LegendNANA
22:00 2.9 0.1 82 LegendMM 33 20   97.70     LegendNANA
23:00 2.7 -0.3 81 LegendMM 33 18   97.74     LegendNANA

Notes on Data Quality.

Legend

  • E = Estimated
  • M = Missing
  • NA = Not Available*
  • [empty] = Indicates an unobserved value
Date modified: